Location: Colebrook
(42.0017°N, 73.0973°W)
Time: 21:36:01
(UTC-04:00)

Amateur Radio Satellites - All Passes

Search period start: 28 March 2017 21:06
Search period end: 29 March 2017 21:06
Location: Colebrook, 42.0017°N, 73.0973°W

Satellite Date Start Highest point End Downlink Frequencies (MHz)
Time Altitude Azimuth
ISS 28 Mar 21:09:23 21:12:32 45° 331° (NNW) 21:15:43 437.550
AO-85 28 Mar 21:21:53 21:26:05 44° 308° (NW) 21:30:02 145.980
AAUSAT CUBESAT 2 28 Mar 21:25:17 21:28:06 18° 267° (W) 21:30:57 437.432
UWE-3 28 Mar 21:27:52 21:31:33 23° 266° (W) 21:35:12 435.000/436.395/437.385
STRAND 1 28 Mar 21:36:17 21:40:15 23° 296° (WNW) 21:44:11 437.568
YUBILEINY 28 Mar 21:39:26 21:40:51 10° 288° (WNW) 21:42:18 435.215
Oscar 11 28 Mar 21:51:08 21:54:44 25° 265° (W) 21:58:19 .
ZACube-1 28 Mar 22:04:07 22:06:56 16° 268° (W) 22:09:43 437.345
BEESAT 3 28 Mar 22:14:54 22:18:49 78° 119° (ESE) 22:22:48 437.485
TIGRISAT 28 Mar 22:15:56 22:19:24 23° 94° (E) 22:22:49 435.000
DELFI C3 28 Mar 22:21:40 22:25:13 33° 263° (W) 22:28:48 145.870
UNISAT 6 28 Mar 22:26:31 22:30:29 32° 96° (E) 22:34:20 437.425
PRISM 28 Mar 22:28:13 22:32:23 67° 102° (ESE) 22:36:31 437.425
SO-50 28 Mar 22:30:56 22:35:01 33° 48° (NE) 22:39:05 436.795
FO-29 28 Mar 22:34:44 22:39:31 26° 92° (E) 22:43:56 435.910
Tancredo 1 28 Mar 22:36:08 22:38:16 16° 350° (N) 22:40:24 437.200
BEESAT 2 28 Mar 22:36:09 22:39:59 50° 118° (ESE) 22:43:53 435.950
RS-15 28 Mar 22:41:47 22:53:35 58° 248° (WSW) 23:04:52 29.354- 29.394
ISS 28 Mar 22:47:22 22:49:37 17° 351° (N) 22:51:51 437.550
ESTCUBE 1 28 Mar 22:56:01 23:00:06 36° 70° (ENE) 23:04:13 437.505/2401.250
LO-87 28 Mar 23:10:29 23:14:05 78° 258° (WSW) 23:17:44 145.935 - 145.965
DX 1 28 Mar 23:29:20 23:30:39 11° 60° (ENE) 23:31:59 434.975-435.025
AIST 2D 28 Mar 23:42:50 23:45:52 27° 96° (E) 23:48:52 435.315
TIGRISAT 28 Mar 23:52:14 23:56:08 32° 291° (WNW) 23:59:57 435.000
50 SAT 28 Mar 23:54:10 23:56:59 24° 69° (ENE) 23:59:50 437.505
BEESAT 3 28 Mar 23:54:52 23:56:56 14° 320° (NW) 23:59:00 437.485
NANOSAT C BR1 28 Mar 23:55:28 23:58:43 21° 94° (E) 00:01:56 145.865
VELOX 1 28 Mar 23:57:14 00:01:30 51° 73° (ENE) 00:05:49 145.980
EO-79 29 Mar 00:01:25 00:05:02 27° 95° (E) 00:08:37 145.935-145.965
UKube-1 29 Mar 00:02:27 00:05:20 18° 64° (ENE) 00:08:14 .
UNISAT 6 29 Mar 00:03:31 00:07:01 23° 293° (WNW) 00:10:27 437.425
PRISM 29 Mar 00:05:36 00:07:06 12° 298° (WNW) 00:08:36 437.425
SO-50 29 Mar 00:11:30 00:15:25 29° 246° (WSW) 00:19:18 436.795
Tancredo 1 29 Mar 00:13:11 00:15:19 16° 10° (N) 00:17:26 437.200
BEESAT 2 29 Mar 00:15:13 00:18:02 18° 317° (NW) 00:20:53 435.950
FO-29 29 Mar 00:19:18 00:24:52 42° 293° (WNW) 00:29:55 435.910
SPROUT 29 Mar 00:22:07 00:26:25 82° 76° (ENE) 00:30:45 437.525
ISS 29 Mar 00:24:42 00:27:01 18° 11° (N) 00:29:21 437.550
POLYITAN 1 29 Mar 00:29:57 00:34:08 57° 100° (E) 00:38:16 437.675
ESTCUBE 1 29 Mar 00:33:36 00:37:00 21° 266° (W) 00:40:25 437.505/2401.250
QB50P2 29 Mar 00:34:41 00:38:56 71° 102° (ESE) 00:43:07 145.880/145.840
DUCHIFAT 1 29 Mar 00:42:50 00:47:03 66° 102° (ESE) 00:51:11 145.980
BUGSAT 1 29 Mar 00:48:59 00:52:26 25° 95° (E) 00:55:49 437.445
RS-15 29 Mar 01:01:11 01:03:03 10° 269° (W) 01:04:54 29.354- 29.394
DX 1 29 Mar 01:01:51 01:06:11 77° 257° (WSW) 01:10:35 434.975-435.025
O/OREOS (USA 219) 29 Mar 01:05:38 01:07:56 13° 51° (NE) 01:10:13 437.305
Oscar 19 29 Mar 01:07:09 01:09:45 14° 90° (E) 01:12:22 437.125/150
AIST 2D 29 Mar 01:16:33 01:18:53 17° 292° (WNW) 01:21:13 435.315
ITUPSAT 1 29 Mar 01:26:08 01:27:55 12° 59° (ENE) 01:29:43 437.325
50 SAT 29 Mar 01:27:30 01:29:59 19° 265° (W) 01:32:31 437.505
NANOSAT C BR1 29 Mar 01:30:42 01:34:29 32° 290° (WNW) 01:38:13 145.865
VELOX 1 29 Mar 01:35:42 01:38:16 15° 269° (W) 01:40:49 145.980
UKube-1 29 Mar 01:36:55 01:41:01 44° 261° (W) 01:45:10 .
EO-79 29 Mar 01:37:11 01:40:43 26° 292° (WNW) 01:44:13 145.935-145.965
Gurwin Techsat 1B 29 Mar 01:41:44 01:45:12 17° 91° (E) 01:48:41 435.225
Tancredo 1 29 Mar 01:48:55 01:52:01 46° 29° (NNE) 01:55:06 437.200
ISS 29 Mar 02:00:48 02:04:03 52° 30° (NNE) 02:07:17 437.550
POLYITAN 1 29 Mar 02:07:21 02:09:26 14° 297° (WNW) 02:11:31 437.675
QB50P2 29 Mar 02:12:47 02:14:07 11° 299° (WNW) 02:15:27 145.880/145.840
DUCHIFAT 1 29 Mar 02:20:35 02:22:09 12° 298° (WNW) 02:23:43 145.980
BUGSAT 1 29 Mar 02:24:12 02:27:45 27° 292° (WNW) 02:31:14 437.445
MOZHAYETS 4 29 Mar 02:36:46 02:40:24 24° 66° (ENE) 02:44:01
BEESAT 29 Mar 02:42:15 02:46:58 66° 74° (ENE) 02:51:42 436.000
O/OREOS (USA 219) 29 Mar 02:43:19 02:47:56 77° 249° (WSW) 02:52:31 437.305
Oscar 19 29 Mar 02:44:25 02:49:35 72° 286° (WNW) 02:54:44 437.125/150
AO-7 29 Mar 02:55:57 03:00:43 16° 89° (E) 03:05:27 .
ITAMSAT 1 29 Mar 02:59:43 03:02:33 15° 90° (E) 03:05:23 435.822/435.867
ITUPSAT 1 29 Mar 03:00:15 03:05:03 84° 257° (WSW) 03:09:52 437.325
Gurwin Techsat 1B 29 Mar 03:20:19 03:25:33 60° 288° (WNW) 03:30:46 435.225
Tancredo 1 29 Mar 03:25:27 03:27:57 21° 226° (SW) 03:30:26 437.200
KKS-1 29 Mar 03:35:19 03:38:42 21° 65° (ENE) 03:42:06 437.445
CUBESAT XI-V 29 Mar 03:36:58 03:39:54 17° 64° (ENE) 03:42:52 437.345
ISS 29 Mar 03:37:50 03:40:17 19° 227° (SW) 03:42:43 437.550
STARS 29 Mar 04:04:04 04:07:12 19° 65° (ENE) 04:10:21 437.465
AO-85 29 Mar 04:12:47 04:15:39 19° 44° (NE) 04:18:32 145.980
MOZHAYETS 4 29 Mar 04:13:08 04:17:21 35° 263° (W) 04:21:35
BEESAT 29 Mar 04:22:53 04:25:10 13° 270° (W) 04:27:29 436.000
ITAMSAT 1 29 Mar 04:37:20 04:42:31 68° 287° (WNW) 04:47:38 435.822/435.867
AO-7 29 Mar 04:46:16 04:54:37 83° 108° (ESE) 05:02:55 .
M-CUBED/EXP-1 PRIME 29 Mar 05:05:14 05:07:33 15° 57° (ENE) 05:09:59 437.505
KKS-1 29 Mar 05:10:51 05:15:01 38° 262° (W) 05:19:12 437.445
CUBESAT XI-V 29 Mar 05:12:24 05:16:51 51° 260° (W) 05:21:22 437.345
STARS 29 Mar 05:39:02 05:43:14 42° 261° (W) 05:47:28 437.465
AO-85 29 Mar 05:52:27 05:56:14 44° 242° (WSW) 06:00:06 145.980
XW-2F 29 Mar 06:02:58 06:04:35 12° 91° (E) 06:06:11 145.980 - 146.000
LilacSat-2 29 Mar 06:08:50 06:11:15 16° 93° (E) 06:13:39 437.200
DOVE 4 29 Mar 06:14:26 06:19:14 34° 95° (E) 06:23:54 437.250
NUDT-PHONESAT 29 Mar 06:19:19 06:21:39 16° 93° (E) 06:23:58 437.300
NO-84 29 Mar 06:24:43 06:27:37 84° 135° (SE) 06:30:28 435.350 FM
XW-2D 29 Mar 06:29:23 06:32:38 28° 96° (E) 06:35:53 145.860 - 145.880
KAITUO 1B 29 Mar 06:29:48 06:32:43 22° 95° (E) 06:35:37 145.475/437.950
BEESAT 3 29 Mar 06:31:21 06:35:17 50° 53° (NE) 06:39:10 437.485
XW-2B 29 Mar 06:35:18 06:38:41 31° 97° (E) 06:42:03 145.730 - 145.750
M-CUBED/EXP-1 PRIME 29 Mar 06:37:55 06:41:33 47° 256° (WSW) 06:45:30 437.505
AO-7 29 Mar 06:40:14 06:46:28 25° 308° (NW) 06:52:42 .
YUBILEINY 29 Mar 06:43:15 06:50:40 32° 84° (E) 06:58:03 435.215
XW-2C 29 Mar 06:45:28 06:49:03 43° 99° (E) 06:52:38 145.795 - 145.815
CUTE-I 29 Mar 06:47:19 06:52:23 41° 98° (E) 06:57:23 437.470
BEESAT 2 29 Mar 06:53:27 06:57:13 35° 50° (NE) 07:00:57 435.950
STRAND 1 29 Mar 07:12:30 07:17:35 68° 74° (ENE) 07:22:43 437.568
XW-2A 29 Mar 07:19:43 07:21:20 13° 92° (E) 07:22:56 145.665 - 145.685
XW-2F 29 Mar 07:35:24 07:38:57 43° 287° (WNW) 07:42:30 145.980 - 146.000
HO-68 29 Mar 07:36:34 07:42:45 30° 95° (E) 07:48:53 435.675
LilacSat-2 29 Mar 07:42:13 07:45:38 33° 289° (WNW) 07:49:02 437.200
DOVE 4 29 Mar 07:52:08 07:56:48 32° 292° (WNW) 08:01:22 437.250
NUDT-PHONESAT 29 Mar 07:52:22 07:55:40 32° 289° (WNW) 07:58:57 437.300
SEEDS 29 Mar 07:54:53 07:58:09 22° 94° (E) 08:01:24 437.485
KAITUO 1B 29 Mar 08:03:40 08:06:40 24° 291° (WNW) 08:09:41 145.475/437.950
XW-2D 29 Mar 08:03:55 08:06:40 20° 292° (WNW) 08:09:25 145.860 - 145.880
NO-84 29 Mar 08:03:57 08:05:30 14° 337° (NNW) 08:07:04 435.350 FM
CUTE 1.7 + AOD 2 29 Mar 08:06:47 08:10:50 45° 98° (E) 08:14:54 437.475
XW-2B 29 Mar 08:10:06 08:12:39 18° 293° (WNW) 08:15:11 145.730 - 145.750
BEESAT 3 29 Mar 08:10:08 08:12:28 15° 250° (WSW) 08:14:48 437.485
CUBEBUG 2 29 Mar 08:20:04 08:23:51 28° 95° (E) 08:27:30 437.445
XW-2C 29 Mar 08:21:00 08:22:53 14° 295° (WNW) 08:24:47 145.795 - 145.815
CUTE-I 29 Mar 08:27:48 08:32:12 27° 295° (WNW) 08:36:34 437.470
BEESAT 2 29 Mar 08:31:38 08:34:48 22° 247° (WSW) 08:37:57 435.950
YUBILEINY 29 Mar 08:38:27 08:46:59 56° 283° (WNW) 08:55:32 435.215
AO-73 29 Mar 08:41:51 08:44:19 15° 91° (E) 08:46:45 145.935
FO-29 29 Mar 08:47:25 08:52:13 18° 58° (ENE) 08:56:48 435.910
XW-2A 29 Mar 08:51:10 08:54:14 32° 288° (WNW) 08:57:16 145.665 - 145.685
STRAND 1 29 Mar 08:54:25 08:57:15 15° 270° (W) 09:00:04 437.568
AAUSAT CUBESAT 2 29 Mar 09:05:13 09:09:22 66° 101° (ESE) 09:13:29 437.432
PCSat 29 Mar 09:05:19 09:10:32 53° 114° (ESE) 09:15:49 145.827
TIGRISAT 29 Mar 09:14:39 09:18:21 24° 67° (ENE) 09:22:01 435.000
UWE-3 29 Mar 09:16:04 09:20:22 73° 102° (ESE) 09:24:31 435.000/436.395/437.385
PRISM 29 Mar 09:17:37 09:21:31 48° 72° (ENE) 09:25:29 437.425
HO-68 29 Mar 09:23:49 09:30:44 53° 293° (WNW) 09:37:38 435.675
UNISAT 6 29 Mar 09:25:15 09:29:23 32° 69° (ENE) 09:33:29 437.425
SEEDS 29 Mar 09:30:09 09:33:52 31° 290° (WNW) 09:37:35 437.485
Oscar 11 29 Mar 09:36:55 09:41:09 55° 100° (E) 09:45:22 .
CUTE 1.7 + AOD 2 29 Mar 09:43:39 09:46:19 17° 295° (WNW) 09:48:59 437.475
ZACube-1 29 Mar 09:50:02 09:54:15 81° 284° (WNW) 09:58:24 437.345
CUBEBUG 2 29 Mar 09:56:45 10:00:22 25° 292° (WNW) 10:03:51 437.445
DELFI C3 29 Mar 09:58:09 10:01:34 27° 96° (E) 10:05:00 145.870
AO-73 29 Mar 10:16:49 10:20:49 44° 288° (WNW) 10:24:44 145.935
AIST 2D 29 Mar 10:19:14 10:20:38 12° 65° (ENE) 10:22:02 435.315
FO-29 29 Mar 10:28:32 10:36:21 84° 73° (ENE) 10:43:36 435.910
AAUSAT CUBESAT 2 29 Mar 10:42:49 10:44:16 12° 297° (WNW) 10:45:43 437.432
YUBILEINY 29 Mar 10:44:27 10:46:06 11° 307° (NW) 10:47:44 435.215
NANOSAT C BR1 29 Mar 10:48:14 10:51:07 18° 65° (ENE) 10:54:00 145.865
PCSat 29 Mar 10:49:43 10:54:14 26° 313° (NW) 10:58:46 145.827
TIGRISAT 29 Mar 10:50:28 10:54:49 37° 263° (W) 10:59:08 435.000
EO-79 29 Mar 10:54:17 10:57:37 22° 67° (ENE) 11:00:57 145.935-145.965
PRISM 29 Mar 10:55:01 10:57:05 14° 268° (W) 10:59:10 437.425
UWE-3 29 Mar 10:55:04 10:56:10 11° 299° (WNW) 10:57:15 435.000/436.395/437.385
RS-15 29 Mar 10:55:18 11:04:12 25° 100° (E) 11:13:16 29.354- 29.394
UNISAT 6 29 Mar 11:02:06 11:06:03 27° 265° (W) 11:10:00 437.425
Oscar 11 29 Mar 11:14:29 11:16:50 15° 296° (WNW) 11:19:09 .
HO-68 29 Mar 11:15:24 11:16:52 11° 313° (NW) 11:18:20 435.675
NO-84 29 Mar 11:21:32 11:22:58 13° 22° (NNE) 11:24:25 435.350 FM
POLYITAN 1 29 Mar 11:22:29 11:26:34 44° 72° (ENE) 11:30:40 437.675
QB50P2 29 Mar 11:27:10 11:31:21 54° 73° (ENE) 11:35:32 145.880/145.840
DELFI C3 29 Mar 11:33:03 11:36:14 23° 292° (WNW) 11:39:25 145.870
DUCHIFAT 1 29 Mar 11:34:33 11:38:40 49° 73° (ENE) 11:42:47 145.980
BUGSAT 1 29 Mar 11:39:12 11:42:16 20° 66° (ENE) 11:45:21 437.445
AIST 2D 29 Mar 11:50:05 11:53:28 43° 262° (W) 11:56:52 435.315
SPROUT 29 Mar 12:09:06 12:11:13 13° 91° (E) 12:13:19 437.525
LO-87 29 Mar 12:10:28 12:14:05 64° 285° (WNW) 12:17:41 145.935 - 145.965
FO-29 29 Mar 12:16:36 12:21:55 20° 270° (W) 12:27:03 435.910
NANOSAT C BR1 29 Mar 12:22:27 12:26:30 42° 261° (W) 12:30:35 145.865
Oscar 19 29 Mar 12:23:55 12:27:48 22° 64° (ENE) 12:31:42 437.125/150
ESTCUBE 1 29 Mar 12:24:06 12:28:38 77° 103° (ESE) 12:33:09 437.505/2401.250
EO-79 29 Mar 12:29:19 12:33:11 33° 263° (W) 12:37:04 145.935-145.965
50 SAT 29 Mar 12:50:29 12:53:25 24° 96° (E) 12:56:20 437.505
DX 1 29 Mar 12:50:32 12:53:31 18° 93° (E) 12:56:29 434.975-435.025
NO-84 29 Mar 12:57:53 13:00:58 66° 40° (NE) 13:04:18 435.350 FM
POLYITAN 1 29 Mar 12:59:52 13:02:34 16° 268° (W) 13:05:16 437.675
Gurwin Techsat 1B 29 Mar 13:02:49 13:07:21 30° 66° (ENE) 13:11:55 435.225
RS-15 29 Mar 13:02:59 13:15:01 89° 302° (WNW) 13:27:30 29.354- 29.394
QB50P2 29 Mar 13:05:22 13:07:27 13° 269° (W) 13:09:33 145.880/145.840
DUCHIFAT 1 29 Mar 13:12:16 13:14:36 14° 269° (W) 13:16:56 145.980
BUGSAT 1 29 Mar 13:13:25 13:17:22 37° 262° (W) 13:21:21 437.445
VELOX 1 29 Mar 13:22:52 13:27:22 83° 284° (WNW) 13:31:49 145.980
UKube-1 29 Mar 13:23:33 13:27:18 28° 96° (E) 13:31:01 .
SPROUT 29 Mar 13:43:15 13:47:27 53° 287° (WNW) 13:51:36 437.525
AO-7 29 Mar 13:55:03 14:01:42 28° 54° (NE) 14:08:20 .
Oscar 19 29 Mar 14:01:53 14:06:48 47° 261° (W) 14:11:45 437.125/150
ESTCUBE 1 29 Mar 14:03:12 14:04:47 12° 299° (WNW) 14:06:24 437.505/2401.250
ITAMSAT 1 29 Mar 14:17:28 14:21:41 25° 64° (ENE) 14:25:53 435.822/435.867
50 SAT 29 Mar 14:23:43 14:26:19 20° 292° (WNW) 14:28:54 437.505
SO-50 29 Mar 14:25:02 14:29:40 78° 122° (ESE) 14:34:17 436.795
DX 1 29 Mar 14:25:44 14:29:53 43° 289° (WNW) 14:34:01 434.975-435.025
NO-84 29 Mar 14:36:53 14:38:12 12° 233° (SW) 14:39:33 435.350 FM
Gurwin Techsat 1B 29 Mar 14:42:18 14:47:10 36° 263° (W) 14:52:04 435.225
BEESAT 29 Mar 14:43:11 14:46:05 16° 92° (E) 14:48:58 436.000
UKube-1 29 Mar 14:59:36 15:03:14 27° 293° (WNW) 15:06:52 .
ITUPSAT 1 29 Mar 15:00:55 15:04:44 24° 95° (E) 15:08:31 437.325
RS-15 29 Mar 15:18:30 15:29:23 35° 329° (NNW) 15:40:28 29.354- 29.394
O/OREOS (USA 219) 29 Mar 15:20:04 15:21:30 11° 97° (E) 15:22:55 437.305
AO-7 29 Mar 15:45:25 15:53:44 74° 254° (WSW) 16:02:04 .
ITAMSAT 1 29 Mar 15:55:57 16:00:53 43° 261° (W) 16:05:52 435.822/435.867
MOZHAYETS 4 29 Mar 16:07:11 16:11:37 49° 99° (E) 16:16:01
SO-50 29 Mar 16:07:38 16:10:40 17° 320° (NW) 16:13:41 436.795
PCSat 29 Mar 16:12:24 16:13:07 10° 32° (NNE) 16:13:49 145.827
BEESAT 29 Mar 16:19:32 16:24:11 55° 288° (WNW) 16:28:48 436.000
CUTE-I 29 Mar 16:34:52 16:35:35 10° 55° (NE) 16:36:20 437.470
ITUPSAT 1 29 Mar 16:38:16 16:42:38 37° 291° (WNW) 16:46:59 437.325
YUBILEINY 29 Mar 16:53:08 16:58:04 16° 58° (ENE) 17:02:59 435.215
O/OREOS (USA 219) 29 Mar 16:55:43 17:00:13 70° 293° (WNW) 17:04:49 437.305
KKS-1 29 Mar 17:01:04 17:05:15 37° 98° (E) 17:09:23 437.445
CUBESAT XI-V 29 Mar 17:08:20 17:12:40 37° 97° (E) 17:16:58 437.345
KAITUO 1B 29 Mar 17:11:46 17:13:13 12° 65° (ENE) 17:14:42 145.475/437.950
XW-2D 29 Mar 17:11:53 17:14:12 16° 66° (ENE) 17:16:30 145.860 - 145.880
XW-2B 29 Mar 17:17:37 17:20:12 18° 67° (ENE) 17:22:45 145.730 - 145.750
DOVE 4 29 Mar 17:19:58 17:24:13 33° 68° (ENE) 17:28:42 437.250
XW-2C 29 Mar 17:27:27 17:30:28 23° 69° (ENE) 17:33:29 145.795 - 145.815
STARS 29 Mar 17:27:53 17:31:52 32° 97° (E) 17:35:48 437.465
RS-15 29 Mar 17:37:33 17:47:04 24° 4° (N) 17:56:29 29.354- 29.394
AO-7 29 Mar 17:44:07 17:47:48 13° 272° (W) 17:51:32 .
MOZHAYETS 4 29 Mar 17:45:24 17:48:22 17° 296° (WNW) 17:51:21
PCSat 29 Mar 17:52:41 17:57:56 46° 54° (NE) 18:03:08 145.827
HO-68 29 Mar 18:06:31 18:12:02 25° 58° (ENE) 18:17:33 435.675
CUTE-I 29 Mar 18:09:20 18:14:40 71° 73° (ENE) 18:20:02 437.470
XW-2F 29 Mar 18:16:02 18:19:50 88° 77° (ENE) 18:23:37 145.980 - 146.000
M-CUBED/EXP-1 PRIME 29 Mar 18:17:30 18:19:28 12° 94° (E) 18:21:25 437.505
LilacSat-2 29 Mar 18:23:41 18:27:29 68° 259° (W) 18:31:17 437.200
NUDT-PHONESAT 29 Mar 18:31:19 18:35:03 72° 258° (WSW) 18:38:47 437.300
KKS-1 29 Mar 18:38:08 18:41:33 22° 295° (WNW) 18:44:57 437.445
ISS 29 Mar 18:42:49 18:44:06 12° 130° (SE) 18:45:22 437.550
KAITUO 1B 29 Mar 18:43:11 18:46:49 49° 261° (W) 18:50:28 145.475/437.950
XW-2D 29 Mar 18:44:32 18:48:05 37° 262° (W) 18:51:39 145.860 - 145.880
CUBESAT XI-V 29 Mar 18:46:08 18:49:49 24° 294° (WNW) 18:53:30 437.345
SEEDS 29 Mar 18:47:34 18:50:11 16° 65° (ENE) 18:52:49 437.485
YUBILEINY 29 Mar 18:47:46 18:56:31 76° 81° (E) 19:05:14 435.215
XW-2B 29 Mar 18:50:42 18:54:09 33° 263° (W) 18:57:36 145.730 - 145.750
DOVE 4 29 Mar 18:57:46 19:01:52 29° 266° (W) 19:06:14 437.250
CUTE 1.7 + AOD 2 29 Mar 18:59:43 19:03:29 33° 71° (ENE) 19:07:16 437.475
XW-2C 29 Mar 19:01:25 19:04:34 24° 265° (W) 19:07:43 145.795 - 145.815
STARS 29 Mar 19:04:29 19:08:03 24° 294° (WNW) 19:11:36 437.465
CUBEBUG 2 29 Mar 19:17:58 19:21:58 28° 68° (ENE) 19:25:56 437.445
XW-2A 29 Mar 19:22:08 19:25:35 78° 76° (ENE) 19:29:02 145.665 - 145.685
STRAND 1 29 Mar 19:23:22 19:27:17 22° 93° (E) 19:31:11 437.568
PCSat 29 Mar 19:36:37 19:41:02 26° 252° (WSW) 19:45:27 145.827
AO-73 29 Mar 19:37:56 19:40:25 15° 64° (ENE) 19:42:54 145.935
M-CUBED/EXP-1 PRIME 29 Mar 19:49:39 19:54:19 74° 291° (WNW) 19:58:58 437.505
HO-68 29 Mar 19:52:01 19:59:08 69° 256° (WSW) 20:06:17 435.675
CUTE-I 29 Mar 19:52:13 19:55:12 15° 270° (W) 19:58:13 437.470
RS-15 29 Mar 19:52:40 20:04:13 42° 37° (NE) 20:15:19 29.354- 29.394
AAUSAT CUBESAT 2 29 Mar 19:55:28 19:59:20 43° 72° (ENE) 20:03:14 437.432
Tancredo 1 29 Mar 20:00:54 20:04:03 83° 144° (SE) 20:07:13 437.200
AO-85 29 Mar 20:06:44 20:11:00 48° 119° (ESE) 20:15:01 145.980
UWE-3 29 Mar 20:12:32 20:17:07 62° 74° (ENE) 20:21:38 435.000/436.395/437.385
ISS 29 Mar 20:16:52 20:20:07 80° 329° (NNW) 20:23:24 437.550
SEEDS 29 Mar 20:21:34 20:25:32 43° 262° (W) 20:29:31 437.485
Oscar 11 29 Mar 20:31:47 20:35:52 43° 72° (ENE) 20:39:57 .
CUTE 1.7 + AOD 2 29 Mar 20:36:13 20:39:23 21° 267° (W) 20:42:34 437.475
DELFI C3 29 Mar 20:44:41 20:47:16 17° 66° (ENE) 20:49:51 145.870
ZACube-1 29 Mar 20:45:20 20:49:52 81° 76° (ENE) 20:54:20 437.345
YUBILEINY 29 Mar 20:46:05 20:52:19 23° 281° (W) 20:58:34 435.215
CUBEBUG 2 29 Mar 20:54:13 20:58:27 32° 264° (W) 21:02:40 437.445
